Location: Newark
(43.6486°N, 79.3853°W)
Time: 03:40:48
(UTC+00:00)

STARLINK-1298 - Pass Details

Date: 08 April 2020
Orbit: 379 x 380 km, 53.0° (Epoch: 06 June)

Event Time Altitude Azimuth Distance (km) Brightness Sun altitude
Exits shadow 09:59:46 - 308° (NW) 2,290 6.5 -8.9°
Rises 09:59:52 0° 308° (NW) 2,255 6.4 -8.9°
Reaches altitude 10° 10:02:07 10° 321° (NW) 1,400 5.5 -8.5°
Maximum altitude 10:04:50 27° 22° (NNE) 778 4.9 -8.0°
Drops below altitude 10° 10:07:33 10° 83° (E) 1,394 7.3 -7.5°
Sets 10:09:47 0° 96° (E) 2,244 8.2 -7.2°
